When you browse on this site, cookies collect data to enhance your experience and personalize the content and advertising you see.
Visit our Privacy Policy to learn more. By continuing to use the site, you agree to this use of cookies and data.
  • In France
  • List of Countries
  • For 7 days
  • Water Temperature
  • Weather Map
  • Weather Widgets
  • user-avatar
    Login

    Hourly Weather Sozopol

    Today, 16 September, Monday

    Time Temperature Precipitation Wind Pressure Humidity
    00:00 +15°C° 0 mm 1 mps 762 mmHg 83%
    01:00 +15°C° 0 mm 1 mps 762 mmHg 84%
    02:00 +15°C° 0 mm 1 mps 762 mmHg 87%
    03:00 +15°C° 0 mm 2 mps 762 mmHg 88%
    04:00 +14°C° 0 mm 2 mps 761 mmHg 88%
    05:00 +14°C° 0 mm 2 mps 761 mmHg 89%
    06:00 +16°C° 0 mm 2 mps 761 mmHg 81%
    07:00 +18°C° 0 mm 2 mps 761 mmHg 72%
    08:00 +20°C° 0 mm 2 mps 761 mmHg 63%
    09:00 +23°C° 0 mm 2 mps 760 mmHg 54%
    10:00 +25°C° 0 mm 1 mps 760 mmHg 45%
    11:00 +28°C° 0 mm 1 mps 760 mmHg 36%
    12:00 +28°C° 0 mm 2 mps 759 mmHg 35%
    13:00 +28°C° 0 mm 3 mps 759 mmHg 33%
    14:00 +29°C° 0 mm 3 mps 758 mmHg 32%
    15:00 +28°C° 0 mm 3 mps 758 mmHg 36%
    16:00 +27°C° 0 mm 4 mps 757 mmHg 39%
    17:00 +26°C° 0 mm 4 mps 757 mmHg 42%
    18:00 +23°C° 0 mm 4 mps 757 mmHg 49%
    19:00 +21°C° 0 mm 3 mps 757 mmHg 56%
    20:00 +18°C° 0 mm 3 mps 758 mmHg 62%
    21:00 +18°C° 0 mm 3 mps 757 mmHg 61%
    22:00 +18°C° 0 mm 2 mps 757 mmHg 60%
    23:00 +17°C° 0 mm 2 mps 757 mmHg 59%

    Tomorrow, 17 September, Tuesday

    Time Temperature Precipitation Wind Pressure Humidity
    00:00 +17°C° 0 mm 2 mps 757 mmHg 59%
    01:00 +17°C° 0 mm 2 mps 757 mmHg 58%
    02:00 +17°C° 0 mm 3 mps 757 mmHg 58%
    03:00 +17°C° 0 mm 3 mps 757 mmHg 56%
    04:00 +17°C° 0 mm 3 mps 756 mmHg 55%
    05:00 +17°C° 0 mm 3 mps 756 mmHg 54%
    06:00 +19°C° 0 mm 3 mps 756 mmHg 48%
    07:00 +22°C° 0 mm 3 mps 757 mmHg 43%
    08:00 +25°C° 0 mm 3 mps 757 mmHg 38%
    09:00 +27°C° 0 mm 3 mps 757 mmHg 32%
    10:00 +30°C° 0 mm 3 mps 757 mmHg 27%
    11:00 +33°C° 0 mm 3 mps 757 mmHg 22%
    12:00 +34°C° 0 mm 3 mps 756 mmHg 21%
    13:00 +35°C° 0 mm 3 mps 756 mmHg 20%
    14:00 +35°C° 0 mm 4 mps 755 mmHg 19%
    15:00 +34°C° 0 mm 4 mps 755 mmHg 21%
    16:00 +33°C° 0 mm 4 mps 755 mmHg 24%
    17:00 +32°C° 0 mm 4 mps 754 mmHg 27%
    18:00 +29°C° 0 mm 4 mps 755 mmHg 31%
    19:00 +26°C° 0 mm 4 mps 755 mmHg 36%
    20:00 +24°C° 0 mm 3 mps 755 mmHg 40%
    21:00 +24°C° 0 mm 3 mps 755 mmHg 40%
    22:00 +23°C° 0 mm 4 mps 755 mmHg 40%
    23:00 +23°C° 0 mm 4 mps 755 mmHg 40%

    Day after tomorrow, 18 September, Wednesday

    Time Temperature Precipitation Wind Pressure Humidity
    00:00 +23°C° 0 mm 4 mps 755 mmHg 40%
    01:00 +23°C° 0 mm 4 mps 755 mmHg 40%
    02:00 +24°C° 0 mm 3 mps 754 mmHg 41%
    03:00 +22°C° 0 mm 3 mps 754 mmHg 42%
    04:00 +22°C° 0 mm 3 mps 754 mmHg 44%
    05:00 +22°C° 0 mm 3 mps 754 mmHg 46%
    06:00 +24°C° 0 mm 3 mps 754 mmHg 43%
    07:00 +26°C° 0 mm 4 mps 754 mmHg 40%
    08:00 +27°C° 0 mm 4 mps 755 mmHg 37%
    09:00 +30°C° 0 mm 4 mps 755 mmHg 32%
    10:00 +33°C° 0 mm 4 mps 755 mmHg 26%
    11:00 +36°C° 0 mm 4 mps 755 mmHg 21%
    12:00 +36°C° 0 mm 4 mps 755 mmHg 21%
    13:00 +36°C° 0 mm 5 mps 755 mmHg 21%
    14:00 +36°C° 0 mm 6 mps 755 mmHg 21%
    15:00 +32°C° 0 mm 7 mps 756 mmHg 34%
    16:00 +28°C° 0 mm 8 mps 756 mmHg 47%
    17:00 +23°C° 0 mm 9 mps 757 mmHg 60%
    18:00 +22°C° 0 mm 9 mps 758 mmHg 64%
    19:00 +21°C° 0 mm 8 mps 759 mmHg 69%
    20:00 +20°C° 0 mm 7 mps 760 mmHg 73%
    21:00 +19°C° 0 mm 6 mps 760 mmHg 75%
    22:00 +19°C° 0 mm 5 mps 760 mmHg 76%
    23:00 +19°C° 0 mm 5 mps 761 mmHg 78%

    19 September, Thursday

    Time Temperature Precipitation Wind Pressure Humidity
    00:00 +18°C° 0 mm 4 mps 761 mmHg 77%
    01:00 +18°C° 0 mm 4 mps 761 mmHg 75%
    02:00 +18°C° 0 mm 4 mps 761 mmHg 74%
    03:00 +18°C° 0 mm 4 mps 761 mmHg 71%
    04:00 +18°C° 0 mm 4 mps 761 mmHg 68%
    05:00 +19°C° 0 mm 4 mps 761 mmHg 66%
    06:00 +19°C° 0 mm 4 mps 761 mmHg 64%
    07:00 +20°C° 0 mm 4 mps 761 mmHg 61%
    08:00 +20°C° 0 mm 4 mps 761 mmHg 59%
    09:00 +21°C° 0 mm 4 mps 761 mmHg 57%
    10:00 +21°C° 0 mm 5 mps 762 mmHg 55%
    11:00 +22°C° 0 mm 5 mps 762 mmHg 54%
    12:00 +22°C° 0 mm 5 mps 761 mmHg 54%
    13:00 +22°C° 0 mm 5 mps 761 mmHg 54%
    14:00 +22°C° 0 mm 5 mps 760 mmHg 55%
    15:00 +22°C° 0 mm 5 mps 760 mmHg 57%
    16:00 +21°C° 0 mm 5 mps 760 mmHg 59%
    17:00 +21°C° 0 mm 5 mps 760 mmHg 61%
    18:00 +20°C° 0 mm 4 mps 760 mmHg 66%
    19:00 +19°C° 0 mm 4 mps 760 mmHg 71%
    20:00 +18°C° 0 mm 4 mps 761 mmHg 76%
    21:00 +18°C° 0 mm 3 mps 761 mmHg 75%
    22:00 +18°C° 0 mm 3 mps 761 mmHg 74%
    23:00 +18°C° 0 mm 2 mps 761 mmHg 73%

    20 September, Friday

    Time Temperature Precipitation Wind Pressure Humidity
    00:00 +18°C° 0.2 mm 2 mps 761 mmHg 76%
    01:00 +17°C° 0.2 mm 2 mps 761 mmHg 79%
    02:00 +17°C° 0.2 mm 2 mps 760 mmHg 81%
    03:00 +16°C° 0.7 mm 2 mps 760 mmHg 82%
    04:00 +16°C° 0.7 mm 3 mps 760 mmHg 82%
    05:00 +14°C° 0.7 mm 3 mps 760 mmHg 82%
    06:00 +14°C° 0.1 mm 3 mps 760 mmHg 78%
    07:00 +15°C° 0.1 mm 4 mps 760 mmHg 74%
    08:00 +15°C° 0.1 mm 4 mps 760 mmHg 71%
    09:00 +17°C° 0 mm 5 mps 761 mmHg 58%
    10:00 +19°C° 0 mm 5 mps 761 mmHg 44%
    11:00 +21°C° 0 mm 6 mps 761 mmHg 31%
    12:00 +22°C° 0 mm 6 mps 761 mmHg 29%
    13:00 +22°C° 0 mm 6 mps 760 mmHg 26%
    14:00 +23°C° 0 mm 6 mps 760 mmHg 23%
    15:00 +22°C° 0 mm 6 mps 760 mmHg 30%
    16:00 +21°C° 0 mm 6 mps 760 mmHg 37%
    17:00 +20°C° 0 mm 6 mps 760 mmHg 43%
    18:00 +17°C° 0 mm 5 mps 761 mmHg 49%
    19:00 +16°C° 0 mm 5 mps 762 mmHg 54%
    20:00 +14°C° 0 mm 4 mps 762 mmHg 60%
    21:00 +14°C° 0 mm 4 mps 763 mmHg 60%
    22:00 +13°C° 0 mm 4 mps 763 mmHg 61%
    23:00 +13°C° 0 mm 3 mps 763 mmHg 62%

    21 September, Saturday

    Time Temperature Precipitation Wind Pressure Humidity
    00:00 +13°C° 0 mm 3 mps 763 mmHg 60%
    01:00 +13°C° 0 mm 4 mps 763 mmHg 58%
    02:00 +13°C° 0 mm 4 mps 764 mmHg 56%
    03:00 +12°C° 0 mm 5 mps 764 mmHg 56%
    04:00 +12°C° 0 mm 5 mps 764 mmHg 56%
    05:00 +10°C° 0 mm 5 mps 765 mmHg 56%
    06:00 +11°C° 0 mm 6 mps 765 mmHg 52%
    07:00 +13°C° 0 mm 6 mps 765 mmHg 47%
    08:00 +14°C° 0 mm 6 mps 766 mmHg 43%
    09:00 +15°C° 0 mm 6 mps 766 mmHg 40%
    10:00 +17°C° 0 mm 6 mps 766 mmHg 36%
    11:00 +19°C° 0 mm 6 mps 766 mmHg 33%
    12:00 +19°C° 0 mm 6 mps 766 mmHg 32%
    13:00 +19°C° 0 mm 5 mps 766 mmHg 31%
    14:00 +20°C° 0 mm 5 mps 766 mmHg 30%
    15:00 +19°C° 0 mm 5 mps 765 mmHg 31%
    16:00 +17°C° 0 mm 5 mps 765 mmHg 32%
    17:00 +18°C° 0 mm 4 mps 765 mmHg 33%
    18:00 +15°C° 0 mm 4 mps 766 mmHg 39%
    19:00 +13°C° 0 mm 4 mps 766 mmHg 45%
    20:00 +12°C° 0 mm 3 mps 766 mmHg 51%
    21:00 +11°C° 0 mm 3 mps 766 mmHg 52%
    22:00 +11°C° 0 mm 3 mps 766 mmHg 52%
    23:00 +10°C° 0 mm 2 mps 767 mmHg 53%
    Show more